Location: Acequia del Cap
(41.7000°N, 0.6167°E)
Time: 23:12:16
(UTC+00:00)

In-Cosmos 22 - Pass Details

Date: 07 August 2020
Orbit: 784 x 877 km, 81.2° (Epoch: 22 September)

Event Time Altitude Azimuth Distance (km) Brightness Sun altitude
Rises 01:11:36 0° 351° (N) 3,431 8.3 -29.9°
Reaches altitude 10° 01:14:04 10° 353° (N) 2,477 7.4 -29.7°
Enters shadow 01:19:20 74° 38° (NE) 866 4.2 -29.4°
